Torna al catalogo

ONEWEB-0638

AttivoComunicazioniPO
NORAD 55802·PAYLOAD·🇬🇧 United Kingdom

Lanciato Mar 9, 2023 da Cape Canaveral Space Force Station

Loading…

Prossimi Passaggi (prossime 24 ore)

TLE

AggiornatoSource: CelesTrak SupGP

Epoca: Sep 14, 2026, 16:29 UTC

1 55802C 23029G   26257.68729167 -.00002671  00000+0 -72127-2 0  2579
2 55802  87.8882 271.8948 0002472  96.2127 303.8553 13.14501524    18

Traccia ONEWEB-0638 in tempo reale con AllMySat

Download on the App Store